Regional Weather Roundup
Issued by NWS

Home | Current Version | Previous Version | Graphics & Text | Print | Product List | Glossary On
Versions: 1 2 3 4 5 6 7 8 9 10 11 12 13 14 15 16 17 18 19 20 21 22 23 24 25 26 27 28 29 30 31 32 33 34 35 36 37 38 39 40 41 42 43 44 45 46 47 48 49 50
000
ASUS43 KIND 260400
RWRIN

WEATHER ROUNDUP FOR INDIANA
NATIONAL WEATHER SERVICE INDIANAPOLIS IN
1200 AM EDT FRI MAY 26 2017

NOTE: "FAIR" INDICATES FEW OR NO CLOUDS BELOW 12,000 FEET WITH NO
SIGNIFICANT WEATHER AND/OR OBSTRUCTIONS TO VISIBILITY.

* - STATION DOES NOT REPORT WEATHER SUCH AS PRECIPITATION OR FOG.

+ - STATION NOT QUALITY CONTROLLED BY THE NATIONAL WEATHER SERVICE.
    USE DATA WITH CAUTION...ESPECIALLY DEWPOINT AND RELATIVE
    HUMIDITY OBSERVATIONS.

INZ001>003-010>013-019-020-260500-
NORTHWEST INDIANA

CITY           SKY/WX    TMP DP  RH WIND       PRES   REMARKS
MICHIGAN CITY+ PTCLDY    46  46 100 SW5       29.78R
MONTICELLO +   PTCLDY    55  53  92 W5        29.77S
RENSSELAER +   MOCLDY    54  52  94 CALM      29.79R

$$

LMZ046-743>745-260500-
SOUTHERN LAKE MICHIGAN

STATION/POSITION TIME  TEMP    WIND        PRES    WAVE
                       AIR SEA DIR/SP/G            HT
                 (UTC) (F)     (DEG/KT/KT) (MB)    (FT)
BURNS HARBOR     0340   54     270/  8/  9 1008.8R
MICHIGAN CITY    0330   51     240/ 13/ 15   N/A
5NW MICH CITY    0350   51 51  270/  8/ 12   N/A     2

$$

INZ004-005-014>016-021>024-260500-
NORTH CENTRAL INDIANA

CITY           SKY/WX    TMP DP  RH WIND       PRES   REMARKS
GOSHEN         CLEAR     53  49  86 W9        29.73R
SOUTH BEND     CLOUDY    48  47  96 W6        29.76R

$$

INZ006>009-017-018-025>027-260500-
NORTHEAST INDIANA

CITY           SKY/WX    TMP DP  RH WIND       PRES   REMARKS
ANGOLA *+      MOCLDY    55  46  71 W7        29.70R
FORT WAYNE     PTCLDY    57  53  86 W12       29.73R
KENDALLVILLE + CLEAR     55  53  95 W9        29.72R

$$

INZ028-029-035-036-043>045-051>053-260500-
WEST CENTRAL INDIANA

CITY           SKY/WX    TMP DP  RH WIND       PRES   REMARKS
CRAWFORDSVL +  CLEAR     51  51 100 CALM      29.81R
GREENCASTLE +  CLEAR     52  52 100 CALM      29.81R FOG
LAFAYETTE      CLEAR     56  54  93 W6        29.78R
TERRE HAUTE    CLEAR     55  53  93 CALM      29.81R

$$

INZ030>032-037>040-046>048-054>057-064-065-260500-
CENTRAL INDIANA

CITY           SKY/WX    TMP DP  RH WIND       PRES   REMARKS
INDIANAPOLIS   CLEAR     56  52  86 W6        29.80R
-EAGLE CREEK   CLEAR     58  53  84 W6        29.79R
KOKOMO +       CLEAR     56  53  90 W7        29.78R
SHELBYVILLE    CLEAR     59  52  77 W8        29.78R

$$

INZ033-034-041-042-049-050-058-059-260500-
EAST CENTRAL INDIANA

CITY           SKY/WX    TMP DP  RH WIND       PRES   REMARKS
MUNCIE         CLEAR     58  54  86 W8        29.76R
RICHMOND +     PTCLDY    55  54  94 W8        29.78R

$$

INZ060-061-067>069-081>083-085>088-260500-
SOUTHWEST INDIANA

CITY           SKY/WX    TMP DP  RH WIND       PRES   REMARKS
EVANSVILLE     CLEAR     60  54  80 CALM      29.82R
HUNTINGBURG *+ CLEAR     61  55  81 CALM      29.82R

$$

INZ062-063-066-070>080-084-089>092-260500-
SOUTH CENTRAL AND SOUTHEAST INDIANA

CITY           SKY/WX    TMP DP  RH WIND       PRES   REMARKS
BLOOMINGTON    CLEAR     54  51  90 CALM      29.81R
MADISON *+     CLEAR     55  54  94 CALM      29.83R
SEYMOUR +      CLEAR     57  55  94 CALM      29.81R

$$





USA.gov is the U.S. government's official web portal to all federal, state and local government web resources and services.